Voltar ao catálogo

SL-8 DEB

AtivoLEO
NORAD 21408·DEBRIS·🇷🇺 Russia

Lançado Feb 12, 1991 de Plesetsk Cosmodrome

Loading…

Próximas Passagens (próximas 24 horas)

TLE

AtualizadoSource: Space-Track

Época: Sep 14, 2026, 06:36 UTC

1 21408U 91009BX  26257.27528291  .00000019  00000-0  32569-3 0  9990
2 21408  74.0267 197.4439 0201228 329.5049 183.0650 12.15997501576266

Acompanhe SL-8 DEB em tempo real com AllMySat

Download on the App Store